Wind_Speed
3 3 4 4 5 5 5 5 5 6 6 6 6 6 6 6 5 4 3 3 2 2 3 3 3 3 3 3 3 3 3 4 4 4 4 4 4 4 4 3 3 3 3 3 2 2 2 2 3
2 3 4 4 4 4 5 5 5 5 6 6 6 6 5 5 4 3 3 2 3 2 2 2 3 3 3 3 2 2 2 3 3 3 2 2 2 2 2 2 3 2 3 2 2 2 2 2 3
2 2 3 4 4 5 5 5 5 5 5 6 6 5 5 4 4 3 3 2 3 2 2 2 2 3 2 2 2 2 2 3 2 2 1 1 1 1 1 1 1 1 2 3 2 2 2 2 3
3 3 3 4 4 4 4 5 4 5 5 5 5 5 4 4 3 3 4 3 2 3 3 3 3 2 2 2 2 3 3 3 2 2 1 0 0 1 1 1 1 1 2 3 3 3 2 2 3
3 2 3 4 4 4 4 5 5 5 4 4 4 4 4 4 4 4 3 3 3 3 4 3 3 3 3 3 3 4 3 4 3 3 2 2 2 1 1 2 2 2 2 2 2 3 3 3 3
3 3 3 4 4 4 4 5 5 5 4 4 5 4 4 4 4 4 4 4 4 4 4 4 4 4 4 4 4 4 4 4 4 4 4 4 3 3 3 3 3 3 3 3 3 3 3 4 4
4 3 3 3 4 5 5 5 5 5 5 5 5 5 5 4 4 4 4 4 5 5 5 5 5 5 5 5 5 5 5 6 5 5 5 5 5 5 5 5 4 4 4 4 4 4 4 4 5
5 4 4 4 4 5 5 6 5 5 5 5 5 5 5 5 5 5 5 5 5 5 6 6 6 6 6 6 6 6 6 6 6 6 6 6 6 6 6 6 6 6 5 5 5 5 5 5 5
6 5 5 4 4 5 5 6 6 5 5 5 5 5 6 6 6 6 6 6 6 7 7 7 7 7 7 6 6 7 6 6 7 7 7 7 7 8 8 7 7 6 6 6 6 6 6 5 6
6 6 5 5 5 5 5 6 5 5 5 5 6 6 6 7 7 7 7 7 7 8 8 8 8 8 8 7 7 7 7 7 7 7 8 8 8 8 8 7 6 6 6 7 7 6 6 5 6
6 6 6 6 6 6 5 5 5 6 6 6 6 6 7 7 7 7 8 7 7 8 8 8 9 9 8 8 8 8 8 8 7 7 7 7 7 7 7 7 7 7 7 7 7 6 6 6 6
6 7 7 6 6 6 6 6 6 6 6 6 6 7 7 8 8 8 7 7 8 8 8 8 9 8 8 8 8 8 8 8 7 7 7 7 7 7 8 8 8 7 7 7 6 6 7 7 7
7 7 7 7 6 6 6 6 6 6 6 6 7 7 7 8 8 8 8 8 8 8 8 9 9 9 9 9 9 9 8 8 8 8 8 8 8 8 8 7 7 7 7 7 7 6 7 7 8
7 7 7 7 7 6 7 7 7 7 7 7 7 8 8 8 8 9 9 8 9 9 9 8 8 8 9 9 9 9 9 9 8 8 8 8 8 8 8 8 8 7 7 7 7 7 7 7 7
7 7 7 7 7 7 7 8 8 8 8 8 9 8 8 8 9 9 9 9 9 9 9 9 9 8 8 8 8 9 8 9 8 8 9 9 8 8 9 9 9 8 8 8 7 7 7 7 7
7 7 8 8 8 8 8 8 9 9 10 9 9 9 9 9 10 10 10 10 10 10 9 9 9 9 9 9 9 8 8 8 9 9 9 10 9 9 9 9 9 9 9 9 9 8 7 7 7
8 8 9 9 9 9 9 9 10 10 10 10 10 10 10 10 10 10 10 10 10 10 9 9 10 10 10 10 9 9 9 9 9 9 10 10 10 10 10 10 9 9 9 9 9 8 7 7 7
8 9 9 10 10 10 10 10 10 10 11 11 10 10 10 10 10 11 11 11 11 10 10 10 11 11 10 9 9 9 9 9 10 10 10 10 10 10 10 10 9 9 9 9 9 9 8 8 8
9 10 10 10 10 10 11 11 11 10 10 10 11 11 11 11 11 11 11 12 11 11 12 12 12 11 11 10 10 10 9 10 9 10 10 10 10 10 10 10 10 10 10 10 9 9 9 8 8
10 10 11 11 11 11 11 11 11 10 11 11 11 11 11 11 11 11 11 12 12 12 12 11 11 11 11 11 11 10 10 9 9 9 10 10 10 10 11 10 10 10 10 10 10 9 9 9 9
12 11 12 12 12 12 12 12 12 12 12 12 12 12 12 12 12 12 12 12 12 12 12 12 11 11 12 12 12 11 10 10 10 9 10 10 10 9 10 10 9 9 10 9 9 8 8 9 9
12 12 12 12 12 13 12 12 12 12 12 12 12 12 13 13 12 12 12 12 12 12 12 13 12 12 12 12 12 11 11 10 10 10 10 9 8 8 9 9 8 8 8 8 8 8 8 8 8
13 13 13 13 13 14 13 13 12 13 13 13 13 12 12 13 12 12 12 12 12 12 12 12 12 12 12 12 12 11 11 10 10 9 8 8 8 8 8 8 8 8 7 7 7 8 8 8 8
13 13 14 14 15 15 14 14 13 13 13 13 13 13 13 13 13 13 13 13 12 12 12 13 12 12 12 12 12 12 11 11 10 10 9 8 8 7 7 8 7 8 7 7 7 7 7 7 8
14 14 14 15 15 16 15 15 14 14 13 13 13 13 13 14 14 13 13 13 13 13 13 13 13 13 13 12 12 11 11 11 11 10 10 9 8 8 7 7 8 8 8 8 8 7 7 7 7
14 14 14 15 16 16 16 16 15 14 15 14 14 14 14 14 14 14 14 14 14 14 14 14 13 13 13 12 12 11 11 11 11 10 10 10 9 8 8 9 9 9 9 8 8 8 7 7 7
15 15 15 15 16 16 17 16 16 15 15 15 15 15 15 14 15 15 14 14 14 14 14 14 14 14 13 13 13 13 13 12 11 11 10 9 9 9 9 9 9 8 8 8 9 8 8 7 7
16 16 16 16 16 16 17 16 16 16 16 16 16 15 15 15 15 15 15 15 15 14 14 15 15 15 14 14 14 13 13 12 11 11 10 10 10 9 9 9 9 9 9 9 9 9 8 8 7
16 16 16 17 17 17 17 17 16 16 16 16 16 16 16 16 16 16 16 15 14 15 15 15 15 15 15 14 14 13 13 13 12 12 11 11 10 10 10 10 10 10 10 10 10 10 9 9 8
17 17 17 18 18 18 18 18 17 17 16 16 16 16 16 16 16 16 15 15 15 15 15 15 15 14 15 15 14 14 14 14 14 13 12 12 12 12 11 11 11 11 10 10 10 10 10 9 9
Wind_Direction
157 155 154 156 149 151 151 153 151 155 157 162 165 161 157 154 163 164 151 141 139 116 109 109 118 123 124 121 122 122 127 128 125 116 107 101 99 94 87 81 75 65 52 47 46 40 35 22 0
152 152 157 160 169 171 160 158 161 163 167 168 171 168 164 167 170 174 172 161 167 158 136 120 132 144 143 137 138 141 153 155 146 137 125 103 98 99 89 84 73 49 32 23 24 13 0 350 345
153 166 169 166 170 170 166 162 164 170 171 171 176 177 176 178 181 179 179 181 186 187 174 166 175 172 160 156 168 180 177 173 175 161 133 87 91 110 119 106 78 24 8 6 1 352 346 347 343
165 174 181 184 184 177 176 182 178 175 177 180 185 186 196 197 190 190 192 197 202 205 200 204 204 203 203 212 210 206 204 203 206 217 221 250 268 247 241 225 260 324 342 343 341 337 340 345 340
184 180 188 194 196 194 194 192 187 177 179 190 197 196 200 200 199 200 211 219 223 220 211 215 220 218 219 226 228 224 225 227 226 236 252 264 270 269 269 261 268 291 312 317 316 316 314 314 319
192 187 192 208 215 209 210 199 195 189 196 207 213 215 217 218 214 214 222 226 225 223 222 220 228 226 231 237 241 241 239 237 237 244 251 259 265 271 272 271 281 286 297 295 293 296 302 304 308
198 195 195 206 220 220 220 207 203 204 208 216 224 228 226 228 231 232 239 236 233 235 234 225 231 235 237 241 247 250 245 243 246 252 251 257 260 258 264 268 275 280 283 286 286 286 292 299 304
205 206 208 213 218 219 220 217 217 212 209 213 224 232 235 236 240 245 246 244 237 241 242 237 239 244 245 247 249 251 250 247 252 258 257 257 258 259 264 269 271 273 275 278 280 283 288 293 299
216 216 218 223 224 220 224 219 218 221 223 224 231 236 238 240 244 250 250 247 243 243 243 242 243 247 246 249 252 253 253 252 257 260 261 260 261 263 268 270 267 265 268 273 274 278 282 288 296
222 224 223 223 223 222 227 222 220 229 238 240 243 245 245 243 245 250 252 252 249 246 246 242 243 248 249 253 258 259 258 258 261 262 267 268 267 266 265 265 265 264 265 272 273 277 278 281 288
228 229 229 229 227 231 233 227 226 233 238 243 247 249 250 251 253 253 254 257 258 257 253 249 249 249 253 258 261 263 264 263 264 265 267 269 268 268 263 263 263 266 265 267 268 273 277 275 279
234 235 235 235 234 236 239 233 231 236 244 249 252 253 253 252 255 256 256 259 263 262 256 254 251 251 253 259 265 263 263 265 264 267 269 268 268 267 264 264 267 267 267 267 272 274 279 280 284
237 239 239 240 240 240 242 238 237 243 251 256 258 254 253 254 257 257 259 260 264 264 261 263 257 258 260 262 262 260 264 266 265 265 264 267 272 268 267 272 272 273 275 276 276 282 285 285 288
240 241 243 245 244 243 246 245 244 247 255 260 262 258 256 259 261 261 263 264 264 264 267 269 270 266 264 264 264 258 260 263 265 264 265 268 269 268 266 266 271 274 273 273 275 279 283 287 287
242 244 248 251 250 251 253 253 250 252 259 264 265 262 262 260 259 261 262 265 266 265 267 268 268 269 268 267 266 261 258 259 264 264 263 268 269 268 269 265 266 273 275 272 271 273 278 281 282
247 248 251 252 254 255 256 255 253 256 260 264 267 265 264 262 262 263 263 264 265 264 264 268 269 270 271 272 269 264 262 264 263 264 265 267 268 270 270 267 264 269 275 275 271 273 277 278 280
251 252 251 253 256 259 260 262 259 257 259 264 264 265 266 266 266 265 266 267 267 265 264 267 269 271 272 273 271 269 270 268 265 266 267 267 268 270 270 268 267 268 272 275 273 273 275 278 281
252 252 252 253 258 263 266 267 265 262 260 261 263 266 268 268 265 267 267 268 268 265 264 264 266 270 272 273 273 273 271 269 267 269 270 269 270 270 272 270 268 271 272 271 270 269 274 277 279
254 253 257 257 260 265 268 269 269 267 264 262 263 267 267 268 266 268 268 269 267 265 262 263 264 266 268 272 274 274 271 274 272 270 272 273 272 270 269 268 266 268 272 271 268 267 271 274 277
257 257 260 262 263 267 268 268 269 268 267 266 266 266 266 267 268 268 268 267 267 266 263 263 263 264 266 270 271 271 271 272 274 274 275 274 274 272 271 267 264 266 272 273 267 269 270 270 273
257 258 260 263 266 270 270 269 269 267 268 267 266 266 265 266 268 267 265 265 266 268 265 263 264 265 266 268 269 268 269 271 271 274 275 278 274 272 271 267 264 264 267 268 265 265 269 267 270
259 259 262 264 266 269 271 271 269 267 267 267 266 265 264 263 264 263 263 264 265 266 265 264 265 265 266 268 268 265 266 270 271 275 278 275 274 272 271 266 261 262 264 264 265 265 266 268 271
259 261 263 265 267 269 270 271 268 267 265 264 265 265 264 261 262 262 262 263 264 264 264 264 265 267 267 268 267 262 262 265 271 276 278 277 276 270 266 266 267 267 265 267 268 268 268 267 268
262 262 264 266 268 270 269 268 267 266 266 264 263 263 263 261 260 262 264 265 264 265 266 265 265 265 266 267 266 261 260 262 268 270 273 275 275 271 267 266 270 270 266 267 267 267 270 270 269
262 264 267 268 269 270 269 266 265 263 263 263 262 262 262 260 261 262 264 265 265 264 265 265 264 264 265 265 264 261 262 263 267 269 271 272 273 267 265 268 269 270 266 268 270 270 269 270 269
261 263 264 266 268 269 268 267 265 263 262 263 262 262 260 260 259 260 262 264 264 263 263 264 263 263 263 263 263 259 261 264 267 268 268 270 270 270 270 272 272 269 265 269 270 269 272 272 273
262 262 264 265 266 267 268 268 266 264 263 262 262 261 259 259 257 257 259 261 262 262 260 259 258 260 262 262 261 261 261 264 265 266 264 266 268 272 277 279 273 267 266 268 270 271 276 275 274
261 262 263 264 265 267 268 268 267 265 263 264 263 261 259 258 257 256 258 260 259 260 261 257 255 258 260 262 261 260 259 262 264 265 265 263 264 267 272 281 282 281 272 271 273 270 272 271 271
261 261 262 263 264 265 267 269 267 266 265 264 263 260 257 256 256 257 256 257 257 259 260 260 256 258 259 261 260 260 258 259 263 264 263 262 262 262 266 272 278 280 276 273 271 270 270 269 270
262 262 262 264 264 264 265 267 269 268 264 262 262 258 255 254 255 256 256 255 255 257 259 258 258 258 260 260 258 258 260 260 261 261 261 259 261 263 266 268 273 275 273 273 273 271 267 267 270
Height
5888 5888 5889 5891 5892 5892 5891 5892 5892 5893 5894 5894 5895 5896 5896 5897 5898 5901 5898 5897 5897 5896 5895 5895 5895 5895 5895 5896 5896 5896 5896 5895 5895 5895 5895 5894 5894 5894 5894 5893 5892 5892 5891 5890 5890 5890 5889 5889 5888
5888 5889 5890 5891 5891 5891 5892 5892 5892 5893 5894 5894 5895 5895 5896 5897 5897 5897 5897 5896 5897 5896 5896 5895 5895 5895 5895 5896 5896 5896 5896 5896 5895 5895 5895 5895 5894 5894 5894 5893 5892 5892 5891 5891 5890 5889 5889 5889 5888
5888 5889 5891 5891 5891 5892 5892 5892 5892 5893 5893 5894 5895 5895 5896 5897 5897 5897 5897 5896 5896 5896 5896 5896 5895 5895 5896 5896 5896 5896 5896 5895 5895 5895 5895 5895 5894 5894 5893 5893 5892 5892 5891 5890 5890 5889 5889 5888 5888
5888 5890 5891 5891 5890 5891 5891 5892 5892 5893 5893 5894 5895 5895 5895 5896 5896 5896 5896 5896 5896 5896 5896 5896 5896 5896 5896 5896 5896 5896 5895 5895 5895 5895 5895 5895 5894 5894 5893 5892 5892 5892 5891 5890 5889 5889 5888 5888 5887
5888 5889 5890 5890 5890 5891 5891 5891 5892 5892 5893 5893 5894 5894 5895 5895 5895 5895 5895 5896 5896 5895 5895 5895 5895 5895 5895 5895 5895 5895 5895 5895 5895 5895 5894 5894 5894 5893 5893 5892 5892 5891 5890 5890 5889 5888 5888 5887 5887
5888 5889 5890 5889 5890 5890 5890 5890 5891 5892 5892 5893 5893 5894 5894 5895 5895 5895 5895 5895 5895 5895 5894 5894 5894 5895 5895 5895 5895 5895 5895 5895 5894 5894 5894 5894 5893 5893 5892 5891 5891 5890 5890 5889 5888 5888 5887 5886 5886
5888 5888 5888 5889 5889 5889 5890 5890 5890 5891 5892 5892 5893 5893 5893 5893 5894 5894 5894 5894 5894 5894 5894 5894 5894 5894 5894 5894 5894 5894 5894 5894 5893 5893 5893 5893 5892 5892 5891 5891 5890 5889 5889 5888 5887 5887 5886 5885 5885
5887 5888 5887 5888 5888 5889 5889 5889 5890 5890 5891 5891 5892 5892 5892 5893 5893 5893 5893 5893 5893 5893 5893 5893 5893 5893 5893 5893 5893 5893 5893 5893 5892 5892 5892 5891 5891 5891 5890 5889 5889 5888 5888 5887 5886 5886 5885 5884 5884
5886 5888 5887 5887 5888 5888 5888 5888 5889 5889 5890 5890 5891 5891 5891 5891 5891 5891 5892 5892 5892 5892 5892 5892 5892 5892 5892 5892 5892 5892 5892 5891 5891 5891 5890 5890 5890 5889 5889 5888 5888 5887 5887 5886 5885 5885 5884 5883 5882
5885 5886 5886 5886 5886 5887 5887 5887 5888 5888 5889 5889 5889 5889 5890 5890 5890 5890 5890 5890 5891 5891 5891 5891 5891 5891 5891 5891 5891 5891 5890 5890 5890 5890 5889 5889 5888 5888 5887 5887 5886 5886 5885 5885 5884 5884 5883 5882 5881
5883 5884 5884 5885 5885 5886 5886 5886 5886 5887 5888 5888 5888 5888 5888 5888 5889 5889 5889 5889 5889 5889 5889 5889 5889 5889 5889 5889 5889 5889 5889 5889 5888 5888 5888 5887 5887 5886 5886 5885 5885 5884 5884 5883 5883 5882 5881 5880 5880
5882 5883 5883 5884 5884 5884 5885 5885 5885 5886 5886 5886 5886 5887 5887 5887 5887 5887 5887 5888 5888 5888 5888 5888 5888 5888 5888 5888 5888 5887 5887 5887 5887 5886 5886 5886 5885 5885 5884 5884 5883 5883 5882 5882 5881 5881 5880 5879 5878
5881 5881 5882 5882 5883 5883 5884 5884 5884 5884 5884 5885 5885 5885 5885 5885 5886 5886 5886 5886 5886 5886 5886 5886 5886 5886 5886 5886 5886 5886 5885 5885 5885 5885 5884 5884 5884 5883 5883 5882 5882 5882 5881 5880 5880 5879 5879 5878 5877
5880 5880 5880 5881 5881 5882 5882 5883 5883 5883 5883 5883 5883 5883 5883 5884 5884 5884 5884 5884 5884 5884 5885 5885 5885 5884 5884 5884 5884 5884 5884 5884 5883 5883 5883 5882 5882 5882 5881 5881 5880 5880 5879 5879 5878 5878 5877 5876 5875
5878 5879 5880 5880 5880 5880 5881 5882 5881 5881 5881 5882 5882 5882 5882 5882 5882 5882 5882 5883 5883 5883 5883 5883 5883 5883 5883 5882 5882 5882 5882 5882 5881 5881 5881 5880 5880 5880 5880 5879 5879 5878 5878 5877 5877 5876 5876 5875 5874
5877 5878 5878 5878 5878 5878 5881 5880 5880 5879 5880 5880 5880 5880 5880 5880 5880 5880 5880 5881 5881 5881 5881 5881 5881 5881 5881 5881 5880 5880 5880 5880 5879 5879 5879 5878 5878 5878 5878 5877 5877 5876 5876 5875 5875 5874 5874 5873 5872
5875 5876 5876 5877 5876 5876 5878 5878 5877 5877 5877 5878 5878 5878 5878 5878 5878 5878 5878 5878 5879 5878 5878 5879 5879 5879 5879 5879 5878 5878 5878 5877 5877 5877 5876 5876 5876 5876 5875 5875 5874 5874 5874 5873 5873 5872 5872 5871 5871
5873 5873 5874 5874 5874 5875 5875 5875 5875 5875 5875 5876 5876 5876 5876 5876 5876 5876 5876 5876 5876 5876 5876 5877 5877 5877 5876 5876 5876 5876 5876 5875 5875 5874 5874 5874 5873 5873 5873 5873 5872 5872 5872 5871 5871 5870 5870 5870 5869
5870 5871 5871 5872 5872 5872 5873 5873 5873 5873 5873 5873 5874 5874 5874 5874 5874 5874 5874 5874 5874 5874 5874 5874 5874 5874 5874 5874 5874 5874 5874 5873 5873 5872 5872 5871 5871 5871 5870 5870 5870 5870 5869 5869 5869 5869 5868 5868 5867
5868 5869 5869 5869 5869 5870 5870 5870 5870 5871 5871 5871 5871 5871 5871 5871 5871 5871 5871 5871 5871 5871 5872 5872 5872 5872 5872 5872 5872 5872 5871 5871 5871 5870 5870 5869 5869 5868 5868 5867 5867 5867 5867 5867 5866 5866 5866 5866 5865
5865 5866 5866 5866 5866 5867 5868 5868 5868 5868 5868 5868 5868 5868 5868 5868 5869 5869 5869 5869 5869 5869 5869 5869 5869 5870 5870 5869 5869 5869 5869 5869 5868 5868 5867 5867 5866 5866 5865 5865 5865 5865 5865 5864 5864 5864 5864 5863 5863
5862 5862 5863 5863 5864 5864 5865 5865 5865 5865 5865 5865 5865 5865 5865 5865 5866 5866 5866 5866 5866 5866 5866 5867 5867 5867 5867 5867 5866 5866 5866 5866 5866 5866 5865 5864 5864 5863 5863 5863 5862 5862 5862 5862 5862 5862 5862 5861 5861
5859 5859 5859 5860 5860 5861 5861 5862 5863 5862 5862 5862 5862 5861 5862 5862 5862 5863 5863 5863 5863 5863 5864 5864 5864 5864 5864 5864 5863 5863 5864 5864 5863 5863 5863 5862 5862 5861 5861 5861 5860 5860 5860 5860 5860 5860 5859 5859 5858
5855 5856 5856 5856 5856 5857 5858 5858 5859 5858 5858 5858 5858 5858 5858 5859 5859 5859 5860 5860 5860 5860 5861 5861 5861 5861 5861 5861 5861 5861 5861 5861 5861 5861 5860 5860 5859 5859 5859 5859 5858 5858 5858 5858 5857 5857 5857 5856 5856
5852 5853 5853 5853 5853 5854 5854 5854 5855 5855 5855 5855 5855 5855 5855 5855 5856 5856 5856 5857 5857 5857 5858 5858 5858 5858 5858 5858 5858 5858 5858 5859 5859 5858 5858 5858 5857 5857 5857 5857 5856 5856 5856 5856 5855 5855 5854 5854 5854
5848 5849 5850 5850 5850 5850 5849 5849 5851 5850 5850 5851 5851 5851 5851 5851 5852 5852 5853 5853 5853 5854 5854 5854 5855 5855 5855 5855 5855 5855 5856 5856 5856 5856 5856 5856 5855 5855 5855 5854 5854 5854 5853 5853 5853 5853 5852 5852 5851
5843 5844 5845 5845 5845 5845 5845 5845 5846 5846 5846 5846 5846 5846 5847 5847 5848 5848 5849 5849 5849 5850 5850 5851 5851 5852 5852 5852 5852 5853 5853 5853 5853 5853 5853 5853 5853 5853 5852 5852 5851 5851 5851 5851 5851 5850 5850 5849 5849
5839 5839 5840 5840 5840 5841 5841 5841 5842 5841 5841 5841 5841 5842 5842 5843 5843 5844 5844 5845 5845 5846 5846 5847 5848 5848 5849 5849 5849 5850 5850 5850 5850 5850 5850 5850 5850 5850 5850 5850 5849 5849 5848 5848 5848 5848 5848 5847 5847
5835 5835 5835 5835 5836 5836 5837 5839 5837 5836 5836 5837 5837 5837 5838 5838 5839 5840 5840 5841 5841 5842 5843 5843 5844 5844 5845 5845 5846 5846 5847 5847 5847 5847 5847 5847 5847 5847 5847 5847 5847 5846 5846 5846 5846 5845 5845 5845 5844
5829 5829 5830 5831 5831 5831 5831 5835 5832 5831 5831 5831 5832 5832 5833 5834 5834 5835 5836 5836 5837 5838 5838 5839 5840 5840 5841 5841 5842 5843 5843 5844 5844 5844 5844 5844 5844 5844 5844 5844 5844 5844 5843 5843 5843 5842 5842 5842 5841